Weather in Medgidia

Romania     44°15′24″N   28°16′06″E
temp.,
°C
wind,
m/s
gust,
m/s
humid.,
%
clouds,
%
prec.,
mm/h
press.,
hPa
HPBL,
m
16 april, fri
fri1600:00+7wsw6126322 0.0 1017427
03:00+4wsw6136911 0.0 1017342
06:00+3wsw512785 0.0 1017367
09:00+6w68725 0.0 1018546
12:00+10w685744 0.0 10191555
15:00+12w79395 0.0 10182049
18:00+12w68425 0.0 10182144
21:00+8wsw486113 0.0 1019142
17 april, sat
sat1700:00+6wsw35625 0.0 102069
03:00+5w336692 0.0 102037
06:00+4wsw2267100 0.0 102021
09:00+9w235347 0.0 1021256
12:00+13ssw23405 0.0 10201369
15:00+16se434111 0.0 10181857
18:00+12se675299 0.0 1018663
21:00+9se5967100 0.0 1018468
18 april, sun
sun1800:00+8se3678100 0.1 1018411
03:00+8ene4873100 0.1 1017355
06:00+8e5973100 0.0 1016438
09:00+8ene5980100 0.1 1016534
12:00+8ene5893100 0.1 1016661
15:00+8ene6991100 0.1 1015509
18:00+8ene4788100 0.0 1015442
21:00+8ene3691100 0.1 1016313
19 april, mon
mon1900:00+8nne3490100 0.0 1015211
03:00+8n2485100 0.0 1014220
06:00+7se2386100 0.1 1014134
09:00+9ne4577100 0.3 1012458
12:00+11ene5673100 0.0 1010668
15:00+10ene5888100 3.1 1006599
18:00+9ne51197100 9.3 1002557
21:00+9nnw61196100 19.6 1000672
20 april, tue
tue2000:00+9wnw91396100 6.3 1000724
03:00+8wnw101695100 14.9 10011285
06:00+8wnw111791100 5.3 10021301
09:00+8w91492100 7.0 1006783
12:00+12w91071100 0.1 10091141
15:00+13wsw81067100 0.3 10101290
18:00+12w710675 0.0 10111132
21:00+9wsw48808 0.0 1013174